HADES-R

Last updated on Fri Dec 19 2025 00:03:12 GMT+0000 (Coordinated Universal Time)

1 62690U 25009CK 25351.96316463 .00147949 00000+0 17623-2 0 9997 2 62690 97.3878 74.7914 0001195 260.1615 99.9507 15.60601205 51591
UTC large
Height (km)
Speed (km/s)
/
Latitude / Longitude
Inclination (degrees)
Orbital Period (minutes)
Azimuth
Elevation
Range (km)
Doppler Factor

Next 0 passes for location: London (51.5072 / 0.1276)

Sorry there are no passes over London.